Regional Weather Roundup
Issued by NWS

Home | Current Version | Previous Version | Text Only | Print | Product List | Glossary On
Versions: 1 2 3 4 5 6 7 8 9 10 11 12 13 14 15 16 17 18 19 20 21 22 23 24 25 26 27 28 29 30 31 32 33 34 35 36 37 38 39 40 41 42 43 44 45 46 47 48 49 50
000
ASUS46 KSEW 041310
RWRWA

WASHINGTON REGIONAL WEATHER ROUNDUP
NATIONAL WEATHER SERVICE SEATTLE WA
600 AM PDT TUE AUG 04 2015

NOTE:"FAIR" INDICATES FEW OR NO CLOUDS BELOW 12,000 FEET WITH NO
SIGNIFICANT WEATHER AND/OR OBSTRUCTIONS TO VISIBILITY.

WAZ505-507>509-041400-
SEATTLE, TACOMA, EVERETT, AND VICINITY

CITY           SKY/WX    TMP DP  RH WIND       PRES   REMARKS
EVERETT        CLOUDY    60  52  74 S3        30.00R
BOEING FIELD   PTCLDY    62  54  74 SE8       29.99S
RENTON         CLOUDY    61  55  81 SE3       29.99S
SEATAC AIRPORT MOCLDY    58  54  86 S6        30.01R
JBLM-MCCHORD   CLEAR     56  53  89 S6        30.00S
PUYALLUP       CLOUDY    55  55 100 CALM      30.01S
BREMERTON      CLOUDY    55  55 100 S5        30.02R VSB 1/2
JBLM-FT LEWIS  CLOUDY    57  53  86 SE7       30.00R
TACOMA NARROWS CLOUDY    58  53  84 S9        30.01R
$$

WAZ001-503-506-510-514-515-041400-
NORTH INTERIOR

CITY           SKY/WX    TMP DP  RH WIND       PRES   REMARKS
BELLINGHAM     MOCLDY    59  55  87 S8        29.97R
FRIDAY HARBOR  MOCLDY    52  51  97 SE5       29.99R FOG
EASTSOUND      MOCLDY    55  54  94 S5        29.96R
PORT ANGELES   MOCLDY    53  50  89 CALM      29.98S
PORT TOWNSEND  MOCLDY    54  52  94 CALM      29.99R
NAS WHIDBEY    CLOUDY    53  52  96 E5        30.02R
ARLINGTON      MOCLDY    54  46  76 CALM      30.00S
BURLINGTON     PTCLDY    54  54 100 CALM      29.99R
$$

WAZ020-022-039-040-504-511-512-041400-
SOUTHWEST INTERIOR

CITY           SKY/WX    TMP DP  RH WIND       PRES   REMARKS
SHELTON        CLOUDY    56  53  90 SW9       29.99R
OLYMPIA        CLOUDY    58  53  84 SW7       30.01R
CHEHALIS       CLOUDY    55  55 100 CALM      30.02S
KELSO          CLOUDY    59  50  72 NE3       30.06R
VANCOUVER      CLEAR     59  52  77 CALM      30.02R
SCAPPOOSE, OR  CLEAR     57  52  83 N7        30.01R
PORTLAND, OR   PTCLDY    60  53  77 NW3       30.02R
$$

WAZ021-516-517-041400-
WASHINGTON COAST

CITY           SKY/WX    TMP DP  RH WIND       PRES   REMARKS
FORKS          CLOUDY    56  55  97 S5        30.01R
HOQUIAM        CLOUDY    55  54  96 W5        30.03R
ASTORIA, OR    CLOUDY    54  52  93 CALM      30.04S
$$

WAZ019-023-024-040-518-519-041400-
CASCADE MOUNTAINS AND COLUMBIA GORGE

CITY           SKY/WX    TMP DP  RH WIND       PRES   REMARKS
TROUTDALE, OR  MOCLDY    59  53  80 CALM      30.01R
THE DALLES, OR CLEAR     66  55  67 NW6       29.91R
$$

WAZ026-027-041>044-520-521-041400-
EAST SLOPES

CITY           SKY/WX    TMP DP  RH WIND       PRES   REMARKS
OMAK           PTCLDY    66  45  46 NW6       29.84R
WENATCHEE      MOCLDY    67  49  52 E5        29.87R
ELLENSBURG     PTCLDY    65  50  58 NW20      29.91R
YAKIMA         MOCLDY    64  50  60 CALM      29.89R
$$

WAZ028-034-035-041400-
COLUMBIA BASIN

CITY           SKY/WX    TMP DP  RH WIND       PRES   REMARKS
EPHRATA        CLOUDY    70  48  45 NW5       29.84R
MOSES LAKE     MOCLDY    65  52  62 CALM      29.85R
PASCO          PTCLDY    58  54  86 NW3       29.87R
HERMISTON, OR  PTCLDY    70  47  43 SW8       29.88R
$$

WAZ036>038-041400-
NORTHEAST WASHINGTON

CITY           SKY/WX    TMP DP  RH WIND       PRES   REMARKS
SPOKANE GEIGER MOCLDY    64  46  52 S9        29.90R
SPOKANE FELTS  PTCLDY    71  46  40 VRB5G17   29.89R
FAIRCHILD AFB  PTCLDY    61  46  57 S8        29.90R
COEURDALENE,ID PTCLDY    63  46  55 SW6       29.90R
DEER PARK      PTCLDY    62  48  60 S9        29.89R
$$

WAZ029>033-041400-
SOUTHEAST WASHINGTON

CITY           SKY/WX    TMP DP  RH WIND       PRES   REMARKS
PULLMAN        MOCLDY    58  46  64 CALM      29.96R
LEWISTON, ID   MOCLDY    68  47  46 CALM      29.89R
WALLA WALLA    PTCLDY    68  44  42 SW7       29.90S
PENDLETON, OR  PTCLDY    61  44  53 VRB6      29.93R
$$


USA.gov is the U.S. government's official web portal to all federal, state and local government web resources and services.